Regional Weather Roundup
Issued by NWS

Home | Current Version | Previous Version | Text Only | Print | Product List | Glossary Off
Versions: 1 2 3 4 5 6 7 8 9 10 11 12 13 14 15 16 17 18 19 20 21 22 23 24 25 26 27 28 29 30 31 32 33 34 35 36 37 38 39 40 41 42 43 44 45 46 47 48 49 50

000
ASUS43 KMKX 242120
RWRWI

WISCONSIN REGIONAL WEATHER ROUNDUP
NATIONAL WEATHER SERVICE MILWAUKEE/SULLIVAN WI
400 PM CDT THU JUL 24 2014

NOTE: "FAIR" INDICATES FEW OR NO CLOUDS BELOW 12,000 FEET WITH NO
SIGNIFICANT WEATHER AND/OR OBSTRUCTIONS TO VISIBILITY.

WIZ001-002-006>008-014>016-023>028-242200-
NORTHWEST WISCONSIN

CITY           SKY/WX    TMP DP  RH WIND       PRES   REMARKS
SUPERIOR ARPT  PTSUNNY   71  60  67 E8        30.00F
ASHLAND        CLOUDY    75  58  55 VRB5      30.04F
HAYWARD        CLOUDY    77  50  38 SW9       30.07S
SIREN          PTSUNNY   77  52  41 SW8       30.05F
RICE LAKE      PTSUNNY   77  52  41 SW8       30.08F
LADYSMITH      PTSUNNY   76  52  43 SW5       30.10R
EAU CLAIRE     PTSUNNY   80  52  37 SW9       30.06R HX  80
MENOMONIE      MOCLDY    78  53  42 SW7       30.07F
NEW RICHMOND   PTSUNNY   77  56  48 SW8       30.07F
OSCEOLA        CLOUDY    78  57  47 S9        30.08F
$$

WIZ003>005-009-010-017-018-242200-
NORTH CENTRAL WISCONSIN

CITY           SKY/WX    TMP DP  RH WIND       PRES   REMARKS
WOODRUFF       PTSUNNY   77  53  43 W3        30.08R
RHINELANDER    MOSUNNY   75  49  39 SW3       30.09S
EAGLE RIVER    MOSUNNY   73  47  39 SW7       30.07S
LAND O LAKES   MOSUNNY   73  47  39 W5        30.09R
PHILLIPS       PTSUNNY   72  53  50 W3        30.08R
TOMAHAWK       MOSUNNY   73  51  45 W3        30.08S
MEDFORD        MOSUNNY   72  52  49 CALM      30.09S
MERRILL        MOSUNNY   75  53  45 SW3       30.08S
$$

WIZ029-030-035-036-043>047-242200-
CENTRAL WISCONSIN

CITY           SKY/WX    TMP DP  RH WIND       PRES   REMARKS
WAUSAU         SUNNY     77  49  37 W8        30.06F
MOSINEE        PTSUNNY   75  48  38 SW5       30.09F
MARSHFIELD     MOSUNNY   77  51  40 VRB6      30.08S
STEVENS POINT  MOSUNNY   76  49  38 W7        30.08R
WAUPACA        MOSUNNY   82  47  29 CALM      30.06F HX  80
WAUTOMA        SUNNY     80  51  36 SW7       30.08F HX  80
WISC RAPIDS    MOSUNNY   79  50  36 W9        30.08F
CAMP DOUGLAS   PTSUNNY   79  54  41 VRB6      30.07F
$$

WIZ011>013-019>022-031-037>040-048>050-242200-
NORTHEAST WISCONSIN

CITY           SKY/WX    TMP DP  RH WIND       PRES   REMARKS
ANTIGO         PTSUNNY   70  52  52 W7        30.09S
STURGEON BAY   SUNNY     70  46  43 S15       30.08F
GREEN BAY      SUNNY     77  51  40 W8        30.07F
MANITOWOC      SUNNY     67  45  45 SE12      30.10F
APPLETON       PTSUNNY   75  50  41 SE8       30.08F
CLINTONVILLE   MOSUNNY   79  46  31 W10       30.07R
OSHKOSH        SUNNY     75  54  47 E7        30.07F
$$

WIZ032>034-041-042-053>061-242200-
SOUTHWEST WISCONSIN

CITY           SKY/WX    TMP DP  RH WIND       PRES   REMARKS
LA CROSSE      MOSUNNY   81  55  40 W9        30.07R HX  81
SPARTA         PTSUNNY   77  49  37 SW6       30.07S
VIROQUA        FAIR      75  55  49 S5        30.10R
BOSCOBEL       PTSUNNY   82  54  37 W5        30.08R HX  81
PRAIRIE DU CHI MOSUNNY   81  54  39 S7        30.06F HX  80
PLATTEVILLE    FAIR      76  53  44 SW6       30.11R
$$

WIZ056-057-062-063-064-067-068-242200-
SOUTH CENTRAL WISCONSIN

CITY           SKY/WX    TMP DP  RH WIND       PRES   REMARKS
BARABOO/DELLS  PTSUNNY   79  49  33 S6        30.08S
LONE ROCK      MOSUNNY   81  54  39 N3        30.08R HX  81
WATERTOWN      CLOUDY    75  51  43 CALM      30.07F
MADISON        PTSUNNY   77  54  44 S5        30.09F
MIDDLETON      MOCLDY    77  49  37 S7        30.09S
MONROE         CLOUDY    73  54  49 SE5       30.10R
JANESVILLE     MOSUNNY   79  48  34 NE5       30.08F
$$

WIZ051-052-058>065-066-070>072-242200-
SOUTHEAST WISCONSIN

CITY           SKY/WX    TMP DP  RH WIND       PRES   REMARKS
MILWAUKEE      MOSUNNY   69  43  38 E10       30.11F
WAUKESHA       MOSUNNY   72  46  40 SE7       30.13S
MILWAUKEE/TIMM SUNNY     72  39  30 SE10      30.11F
RACINE         SUNNY     69  47  45 E8        30.13F
BURLINGTON     MOSUNNY   73  51  46 S3        30.09F
KENOSHA        SUNNY     72  46  39 E9        30.11F
FOND DU LAC    PTSUNNY   74  52  46 VRB3      30.08F
SHEBOYGAN      SUNNY     71  45  39 SE9       30.09F
WEST BEND      SUNNY     72  45  37 E7        30.09F
JUNEAU         MOSUNNY   74  45  35 SW5       30.09F
$$

LSZ147-162-242200-
LAKE SUPERIOR

STATION/POSITION TIME  TEMP    WIND        PRES    WAVE
                       AIR SEA DIR/SP/G            HT/PER
                 (UTC) (F)     (DEG/KT/KT) (MB)    (FT/S)
$$

LMZ867-665-643>646-242200-
LAKE MICHIGAN

STATION/POSITION TIME  TEMP    WIND        PRES    WAVE
                       AIR SEA DIR/SP/G            HT/PER
                 (UTC) (F)     (DEG/KT/KT) (MB)    (FT/S)
$$

TC  - TEMPERATURE IN CELSIUS
VSB - VISIBILITY IN STATUTE MILES
WCI - WIND CHILL INDEX
HX  - HEAT INDEX



USA.gov is the U.S. government's official web portal to all federal, state and local government web resources and services.